GPS IIR-8

operational
NORAD ID: 27663 Int'l Des: 2003-005 Owner: AFSMC Country: US Constellation: GPS
MEOGNSS

About GPS IIR-8

Description loading...

Live Position

Loading 3D Globe...

Upcoming Passes

Altitude History

Altitude vs Time

uPlot chart will show altitude changes over time

Two-Line Element Set

1 27663U 03005A 26063.09764979 -.00000002 00000-0 00000+0 0 9992
2 27663 54.9074 219.1417 0148732 52.7148 86.9176 2.00566281169207
Epoch: Mar 4, 2026 • Age: 11 hours

Current Status

Altitude 19809.7 km
Velocity 3.93 km/s
Sub-Earth Point 26.93°N, 84.22°W
Launch Date Jan 29, 2003
Age 23 years
Type navigation

Technical Details

Classification Payload
Mass 1077.00 kg
Dry Mass 910.00 kg
Total Mass 2032.00 kg
Length 1.50 m
Diameter 1.90 m
Span 19.30 m
Shape Box + 2 Pan
Manufacturer LMMS
Bus Type Series 4000
Phase Status In Orbit
Owner/State AFSMC/US

Large Constellations

Loading constellations...